SCP
1 1 1 1 0 0 0 0 0 0 0 0 0 0 0 0 0 0 0 1 1 1 1 1 1 1 1 1 1 1 1 1 1 1 1 1 0 0 0 0 0 0 0 0 0 0 0 0 0
1 1 1 1 0 0 0 0 0 0 0 0 0 0 0 0 0 0 1 1 1 1 1 1 1 1 1 1 1 1 1 1 1 1 1 1 1 1 1 0 0 0 0 0 0 0 0 0 0
0 1 1 0 0 0 0 0 0 0 0 0 0 0 0 0 0 0 1 1 1 1 1 1 1 1 1 1 1 1 1 1 1 1 1 1 1 1 1 1 0 1 1 0 0 0 0 0 0
0 0 0 0 0 0 0 0 0 0 0 0 0 0 0 0 0 1 1 1 1 1 1 1 1 2 2 2 2 2 1 1 1 1 1 1 1 1 1 0 0 1 1 1 1 0 0 0 0
1 1 0 0 0 0 0 0 0 1 1 0 0 1 1 0 1 1 1 1 1 1 1 1 1 2 2 2 2 2 1 1 1 1 1 1 1 1 1 0 0 0 1 1 1 1 0 0 0
1 0 0 0 0 0 0 0 1 1 1 1 1 1 1 1 1 1 1 1 1 1 1 1 1 1 1 2 2 2 1 1 1 1 1 1 1 1 1 1 0 0 1 1 1 1 1 0 0
1 0 0 0 0 0 0 1 1 1 1 1 1 1 1 1 1 1 1 1 1 1 1 1 1 1 1 1 2 1 1 1 1 1 1 1 1 1 1 1 1 1 1 1 1 1 1 0 0
0 0 0 0 0 0 0 1 1 1 1 1 1 1 1 1 1 1 1 1 1 1 1 1 1 1 1 1 1 1 1 1 1 1 1 1 1 1 1 1 1 1 1 1 1 1 1 0 0
0 0 0 0 0 1 1 1 1 1 1 1 1 1 1 1 1 1 0 0 1 1 1 1 1 1 1 1 1 1 1 1 1 1 1 1 1 1 1 1 1 1 1 1 1 1 1 0 0
0 0 0 0 1 1 0 1 1 1 1 1 0 0 0 0 0 0 0 0 0 0 0 0 0 0 0 1 1 1 1 1 1 1 1 1 1 1 1 1 1 1 1 1 1 1 1 1 1
0 0 0 0 1 1 0 0 1 1 1 1 0 0 0 0 0 0 0 0 0 0 0 0 0 0 0 0 1 1 1 1 1 1 1 1 1 1 1 1 1 1 1 1 1 1 1 1 1
1 1 1 1 0 0 0 1 1 1 1 1 0 0 0 0 0 0 0 0 0 0 0 0 0 0 0 0 0 1 1 1 1 1 1 1 1 1 1 2 2 1 1 1 1 1 1 1 1
1 1 1 1 0 0 0 1 1 1 1 0 0 0 0 0 0 0 0 0 0 0 0 0 0 0 0 0 0 0 0 1 1 1 1 1 1 1 1 1 1 1 1 1 1 1 1 1 1
1 1 1 1 0 0 0 1 1 1 1 0 0 0 0 0 0 0 0 0 0 0 0 0 0 0 0 0 0 0 0 0 1 1 1 1 1 1 1 1 1 1 2 1 1 1 1 1 1
1 1 1 1 1 0 0 0 1 1 1 0 0 0 0 0 0 0 0 0 0 0 0 0 0 0 0 0 0 0 0 0 1 1 1 1 1 1 1 1 1 1 2 1 1 1 1 1 1
0 0 1 1 1 1 0 0 1 1 1 0 0 0 0 0 0 0 0 0 0 0 0 0 0 0 0 0 0 0 0 0 0 1 1 1 1 1 1 1 1 1 1 1 1 1 1 1 1
0 0 0 1 1 1 0 0 1 1 1 0 0 0 0 0 0 0 0 0 0 0 0 0 0 0 0 0 0 0 0 0 0 0 1 1 1 1 1 1 1 1 1 1 1 1 1 1 1
0 0 0 1 1 0 0 0 1 1 0 0 0 0 0 0 0 0 0 0 0 0 0 0 0 0 0 0 0 0 0 0 0 0 0 1 1 1 1 1 1 1 1 1 1 1 1 1 1
0 0 0 0 0 0 0 0 0 0 0 0 0 0 0 0 0 0 0 0 0 0 0 0 0 0 0 0 0 0 0 0 0 0 0 0 1 1 1 1 1 1 1 1 1 1 1 1 1
0 0 0 0 0 0 0 0 0 0 0 0 0 0 0 0 0 0 0 0 0 0 0 0 0 0 0 0 0 0 0 0 0 0 0 0 0 0 0 0 1 1 1 1 1 1 1 1 1
0 0 0 0 0 0 0 0 0 0 0 0 0 0 0 0 0 0 0 0 0 0 0 0 0 0 0 0 0 0 0 0 0 0 0 0 0 0 0 0 0 1 1 1 1 1 1 1 1
0 0 0 0 0 0 0 0 0 0 0 0 0 0 0 0 0 0 0 0 0 0 0 0 0 0 0 0 0 0 0 0 0 0 0 0 0 0 0 0 0 0 1 1 1 1 1 1 1
0 0 0 0 0 0 0 0 0 0 0 0 0 0 0 0 0 0 0 0 0 0 0 0 0 0 0 0 0 0 0 0 0 0 0 0 0 0 0 0 0 0 0 0 1 1 1 1 1
0 0 0 0 0 0 0 0 0 0 0 0 0 0 0 0 0 0 0 0 0 0 0 0 0 0 0 0 0 0 0 0 0 0 0 0 0 0 0 0 0 0 0 0 0 1 1 1 1
0 0 0 0 0 0 0 0 0 0 0 0 0 0 0 0 0 0 0 0 0 0 0 0 0 0 0 0 0 0 0 0 0 0 0 0 0 0 0 0 0 0 0 0 0 0 1 1 1
0 0 0 0 0 0 0 0 0 0 0 0 0 0 0 0 0 0 0 0 0 0 0 0 0 0 0 0 0 0 0 0 0 0 0 0 0 0 0 0 0 0 0 0 0 0 0 1 1
0 0 0 0 0 0 0 0 0 0 0 0 0 0 0 0 0 0 0 0 0 0 0 0 0 0 0 0 0 0 0 0 0 0 0 0 0 0 0 0 0 0 0 0 0 0 0 0 1
0 0 0 0 0 0 0 0 0 0 0 0 0 0 0 0 0 0 0 0 0 0 0 0 0 0 0 0 0 0 0 0 0 0 0 0 0 0 0 0 0 0 0 0 0 0 0 0 0
0 0 0 0 0 0 0 0 0 0 0 0 0 0 0 0 0 0 0 0 0 0 0 0 0 0 0 0 0 0 0 0 0 0 0 0 0 0 0 0 0 0 0 0 0 0 0 0 0
0 0 0 0 0 0 0 0 0 0 0 0 0 0 0 0 0 0 0 0 0 0 0 0 0 0 0 0 0 0 0 0 0 0 0 0 0 0 0 0 0 0 0 0 0 0 0 0 0
Wind_Speed
11 10 6 2 2 2 4 7 9 8 6 9 10 11 13 13 9 7 1 6 7 10 11 10 9 6 5 4 3 2 1 0 0 1 1 1 2 2 1 1 2 2 2 2 2 3 3 3 3
10 8 5 3 1 1 3 5 7 9 8 6 9 12 12 11 10 7 4 5 7 10 10 10 9 7 5 3 2 1 1 1 2 2 3 3 3 3 3 3 3 2 2 2 2 2 2 2 2
9 7 4 3 0 2 3 4 5 8 9 8 9 12 9 7 8 5 3 4 9 11 11 11 10 8 6 5 3 2 2 2 3 3 4 4 5 5 5 4 4 4 4 3 2 2 2 2 2
5 4 4 2 2 7 7 5 5 7 8 9 10 10 8 7 5 5 5 8 10 10 11 10 10 8 6 5 4 3 2 2 3 4 4 5 6 6 6 6 6 5 5 5 3 3 3 3 3
4 3 3 1 4 7 7 7 7 8 9 11 11 10 8 7 7 7 8 9 9 9 9 8 9 8 7 6 5 3 2 2 2 4 4 5 6 7 7 7 7 7 7 6 4 4 4 4 4
3 3 1 1 4 6 7 6 7 8 9 9 9 9 7 6 7 6 7 7 7 7 6 6 7 6 5 5 4 3 2 2 2 3 4 4 5 6 7 8 8 8 8 7 6 5 5 5 5
4 4 2 2 4 5 5 6 7 7 8 9 7 8 7 7 5 5 6 6 5 5 4 3 3 3 4 4 2 2 1 2 2 2 3 4 5 6 7 9 9 9 8 8 7 7 7 7 6
4 4 4 3 4 5 5 6 7 8 8 9 8 7 7 6 5 5 5 5 4 4 3 2 2 1 0 1 2 1 2 3 4 4 4 4 5 7 8 8 9 9 8 8 8 8 8 8 8
6 3 2 2 4 6 5 6 7 8 11 12 12 11 8 7 5 4 4 4 4 4 3 2 2 1 1 2 1 2 3 5 5 5 6 5 4 4 5 7 8 8 8 8 8 9 9 9 9
6 1 2 2 5 6 5 5 5 6 9 9 9 9 7 5 5 4 4 4 5 4 4 4 3 3 1 2 1 1 2 2 4 3 3 2 2 3 5 5 8 8 8 9 9 10 9 8 5
3 1 3 4 6 5 5 4 2 3 5 7 7 7 6 4 4 5 5 5 5 5 6 6 6 5 4 2 1 1 1 2 3 3 3 2 2 2 2 2 3 4 6 5 5 5 4 5 5
2 2 3 5 4 3 3 4 3 6 7 8 7 5 4 4 5 5 5 5 4 5 5 5 6 6 6 5 3 3 2 2 2 3 3 2 2 2 2 2 2 3 2 3 3 2 4 5 7
3 3 4 5 3 2 2 3 3 6 6 7 6 4 3 4 4 4 4 5 5 5 4 5 6 6 6 5 3 4 3 2 2 2 2 3 2 3 3 2 2 3 3 3 3 3 4 5 6
7 6 5 6 5 4 3 4 5 7 7 6 4 3 3 3 3 4 5 6 6 6 5 5 6 6 6 5 5 4 4 3 3 2 3 3 2 2 3 3 3 3 3 3 3 4 5 4 4
8 8 7 7 6 5 4 6 8 10 8 6 5 4 3 1 2 2 5 5 6 5 5 5 5 6 6 6 6 6 4 4 3 3 4 4 2 2 3 3 3 3 3 4 4 5 4 5 5
8 9 8 8 6 5 4 5 9 11 8 6 5 3 4 3 2 3 5 5 6 5 5 4 6 6 5 4 5 4 4 4 4 4 4 5 5 4 3 2 3 3 3 3 4 4 4 5 4
8 7 5 5 9 6 5 4 10 9 7 6 6 4 5 4 2 4 5 5 4 4 4 4 4 4 5 4 4 4 4 4 3 3 3 5 6 6 4 2 2 3 2 3 4 4 4 4 5
3 3 7 5 8 6 6 5 9 10 8 6 4 4 4 2 3 5 4 3 2 3 4 4 4 4 5 4 4 4 4 4 3 3 3 5 4 5 5 4 4 3 2 2 3 4 4 3 4
4 7 9 2 6 2 7 8 6 10 8 6 6 5 4 1 4 6 3 2 2 4 4 4 4 4 4 3 3 4 4 4 3 3 4 5 5 5 4 4 4 3 2 3 4 3 4 3 3
9 9 8 2 5 1 8 10 5 9 8 5 4 3 2 2 2 4 4 3 3 4 4 4 4 4 4 3 3 3 3 3 3 3 3 4 4 4 5 5 4 3 3 4 4 3 2 2 3
10 6 5 6 3 5 8 9 7 8 6 5 3 2 3 1 2 3 4 3 3 3 4 5 5 5 5 4 3 4 4 3 3 4 3 4 4 4 3 4 4 4 3 3 4 3 4 3 3
5 6 4 5 6 7 5 4 5 9 7 7 6 4 2 1 2 2 2 3 3 4 4 5 5 5 5 5 4 4 4 3 4 3 3 4 4 4 3 3 4 4 3 3 4 4 3 3 3
4 4 4 6 8 9 7 6 4 8 6 6 5 4 2 3 3 2 2 2 2 3 3 3 3 3 3 4 4 3 3 3 3 4 4 4 4 4 4 3 4 4 3 3 4 4 4 3 4
1 4 7 7 7 9 7 5 3 5 4 4 5 4 4 4 3 2 2 2 1 2 1 1 1 1 2 3 4 3 3 4 5 5 4 4 3 3 4 5 4 4 3 4 4 3 4 4 4
5 7 5 7 7 4 6 2 3 9 7 4 3 3 4 4 3 3 2 2 1 1 0 1 1 1 2 3 4 4 3 4 4 4 4 4 3 3 4 5 4 4 3 4 4 4 4 4 5
6 8 6 6 3 3 6 3 7 9 6 4 3 3 3 3 3 2 2 2 2 2 1 0 1 1 1 2 3 4 4 3 3 4 4 4 3 3 4 5 5 5 4 4 3 3 4 4 4
5 5 3 6 9 5 5 8 8 6 6 5 4 4 4 3 4 3 3 2 2 1 1 0 1 1 1 2 3 2 3 3 4 4 4 3 4 4 5 5 5 5 4 4 3 3 4 4 3
6 8 3 4 5 5 3 6 6 7 4 4 4 5 4 4 4 4 4 3 2 1 1 2 2 2 0 2 2 2 2 2 3 3 3 4 5 5 5 5 5 5 4 4 3 3 4 4 4
7 6 4 5 5 4 3 4 6 6 4 1 1 3 4 4 4 4 4 3 2 1 2 2 2 1 1 1 2 3 2 2 3 3 3 4 4 5 5 5 5 5 5 4 4 4 5 4 4
3 6 5 4 4 2 2 3 5 5 3 1 1 1 3 3 4 4 4 3 2 2 1 1 0 1 1 1 2 3 3 2 3 4 4 5 5 5 5 5 5 5 5 5 5 5 5 5 5
Wind_Direction
182 195 197 205 243 248 38 51 52 39 41 45 45 61 67 50 42 74 28 21 64 97 117 119 112 107 102 96 87 76 62 47 250 223 230 242 247 255 265 291 306 327 344 358 1 5 10 16 17
194 194 204 225 253 86 52 45 52 44 37 49 61 64 66 59 48 69 29 18 67 84 94 101 99 90 80 71 57 27 350 316 289 265 253 256 260 264 267 273 281 288 296 310 324 333 341 345 353
220 206 229 226 326 78 86 49 51 57 42 47 67 58 51 40 38 48 17 38 72 80 83 88 89 84 77 68 54 28 355 325 301 284 272 267 269 270 268 269 270 273 277 279 284 295 306 308 312
215 218 243 243 60 68 71 57 49 63 50 51 73 74 69 43 41 40 39 58 70 77 84 82 79 78 75 68 57 39 7 320 300 289 280 274 272 271 269 268 266 266 268 268 267 275 280 284 286
225 239 264 326 77 77 65 50 52 63 57 56 73 89 85 68 65 56 51 53 65 70 80 85 82 80 74 66 56 42 9 340 302 287 285 283 281 278 274 267 264 263 262 260 260 258 262 268 272
249 253 296 21 94 86 73 54 55 63 58 55 83 93 81 79 71 65 66 64 64 68 75 93 101 99 94 84 70 52 13 342 309 285 276 274 279 282 278 271 265 263 261 258 256 252 256 261 262
253 267 240 147 107 93 79 56 52 63 56 43 59 92 100 85 84 86 81 78 76 73 74 82 100 110 121 117 95 60 1 312 293 275 267 265 264 268 270 266 261 260 258 255 254 250 251 255 255
262 287 334 39 88 95 89 77 60 59 64 48 43 88 97 98 109 100 98 95 86 76 63 65 61 58 83 146 158 208 274 277 262 249 243 249 256 256 257 256 252 252 254 254 254 251 249 250 251
262 271 4 13 69 105 116 106 88 81 79 72 67 77 97 111 112 102 95 86 66 52 37 29 22 16 288 269 220 216 244 255 257 248 236 238 242 243 241 242 246 244 245 249 254 252 248 248 246
228 288 73 16 53 106 109 99 118 119 106 100 97 102 107 105 93 81 66 52 41 31 23 14 357 332 314 311 316 231 248 236 245 250 231 215 235 246 256 247 241 238 240 243 247 250 249 245 242
244 113 113 75 74 104 113 105 80 112 106 113 116 112 103 92 70 50 43 40 25 28 15 359 0 347 343 334 322 292 245 234 241 248 245 230 236 250 258 244 237 230 233 235 237 238 239 237 240
206 77 81 90 82 109 118 113 82 60 81 93 97 102 101 68 48 40 28 20 17 37 9 3 1 348 348 346 344 294 260 237 239 227 232 226 219 237 238 229 229 215 204 214 225 219 242 254 254
181 119 106 106 134 129 112 122 107 106 105 108 118 117 88 56 26 23 28 13 14 31 7 20 2 356 347 339 318 314 312 306 295 277 254 235 222 238 252 243 230 225 205 201 219 227 240 258 273
134 146 162 159 158 155 173 167 170 151 151 152 166 156 107 66 8 360 23 9 12 17 5 32 3 358 347 344 336 326 323 313 298 291 288 276 243 235 233 240 236 229 216 205 206 224 235 242 264
141 170 180 179 186 171 210 223 201 148 168 178 198 175 121 99 320 12 30 5 18 8 7 23 357 9 0 352 340 327 320 324 331 330 318 310 293 271 261 245 237 231 221 213 210 217 229 236 246
204 211 210 181 188 160 226 275 136 144 179 194 211 183 160 196 238 66 42 12 17 4 3 23 10 359 352 349 330 324 328 339 338 335 335 332 327 311 292 273 256 239 223 214 212 212 220 228 233
221 245 254 171 189 179 220 274 143 163 191 211 209 215 193 209 155 80 54 23 12 359 359 31 20 350 354 351 336 335 337 339 331 339 351 343 341 334 321 298 281 267 241 224 230 216 210 222 225
231 266 268 220 177 205 243 259 168 174 193 227 229 227 218 201 107 92 70 45 9 8 10 30 14 6 6 8 347 345 345 340 336 345 350 349 334 329 328 312 298 287 264 247 239 235 221 216 217
275 261 273 113 128 238 280 277 201 172 182 216 232 231 232 150 101 103 87 64 24 31 21 11 15 15 19 16 342 342 337 328 331 343 355 348 335 332 318 310 315 311 282 262 249 239 232 224 208
260 269 286 80 113 302 288 282 243 167 181 205 251 284 298 83 65 99 92 66 42 39 23 5 23 18 20 6 343 329 329 319 328 339 346 347 338 336 331 329 314 304 298 284 265 245 232 238 203
264 278 337 347 327 260 263 266 220 160 166 180 202 258 301 42 45 46 50 37 38 50 31 11 23 19 19 360 360 343 332 330 351 347 343 335 326 327 326 325 318 307 301 288 278 258 232 235 231
282 56 7 315 292 275 224 287 171 154 167 185 189 200 209 126 106 84 68 42 27 50 41 19 19 16 16 2 5 345 337 344 336 333 328 334 331 335 322 320 319 309 300 292 286 274 246 224 238
42 29 302 281 274 279 246 247 154 147 172 170 158 164 146 125 119 108 96 72 40 51 46 21 16 17 13 344 327 315 342 332 323 325 331 337 327 328 336 334 320 312 304 301 297 299 278 239 225
47 262 253 247 257 257 232 240 135 137 116 111 128 143 141 137 138 142 126 122 99 79 66 13 13 6 345 319 315 324 339 330 324 332 337 331 320 328 351 343 332 316 315 309 298 286 278 262 244
235 254 252 222 216 217 120 176 86 94 82 77 91 113 126 135 155 154 145 132 102 75 88 318 337 346 354 329 324 340 349 339 335 348 337 326 328 339 346 345 327 319 311 305 302 293 280 266 255
229 261 283 300 288 123 151 175 101 101 99 101 116 121 135 160 162 150 146 155 182 214 195 221 319 311 327 317 338 345 353 356 344 342 327 328 335 328 332 333 318 313 311 314 314 303 292 281 269
269 239 301 319 296 285 173 129 122 132 145 152 164 166 183 184 164 175 170 186 204 204 153 167 282 300 322 327 330 334 2 345 337 335 332 340 330 323 334 318 316 317 322 320 315 298 298 300 281
291 328 310 256 296 287 167 151 142 149 149 158 181 182 187 180 181 175 160 183 211 183 166 212 223 242 341 338 322 351 345 337 325 316 329 326 316 318 314 317 319 320 328 330 326 310 298 295 284
193 220 251 280 280 298 345 71 81 103 89 89 188 159 168 174 174 167 162 180 181 220 232 217 210 185 138 348 336 338 333 317 309 318 325 315 316 324 325 329 331 336 338 333 332 321 316 308 299
251 251 244 257 293 266 275 106 107 111 116 156 317 140 151 153 161 168 170 177 191 218 273 304 337 67 106 73 339 321 303 304 342 345 339 338 329 324 324 331 336 340 339 335 332 327 325 313 304